Flag for Lesotho Weather past 2 weeks in Maseru, Lesotho

Now
34 °F

Chilly.


Feels Like: 34 °F
Forecast: 25 / 67 °F
Wind: 2 mph from North

Location: Bloemfontein Airport

Current Time: Aug 31, 2014 at 2:47:18 AM

Latest Report: Aug 31, 2014 at 2:00 AM


Visibility: N/A

Pressure: 30.39 "Hg

Humidity: 65%

Dew point: 23 °F

Location of MaseruLocation

Historic Weather in Maseru — Graph

°F

Maseru temperature yesterday

Maximum temperature yesterday: 61 °F (at 4:00 PM)
Minimum temperature yesterday: 30 °F (at 7:00 AM)
Average temperature yesterday: 45 °F

Past Weeks' High & Low Weather Summary

 TemperatureHumidityPressure
High79 °F (Aug 27, 2:00 PM)88% (Aug 19, 7:00 AM)30.54 "Hg (Aug 19, 7:00 AM)
Low23 °F (Aug 23, 7:00 AM)4% (Aug 26, 5:00 PM)29.95 "Hg (Aug 27, 3:00 PM)
Average51 °F47%30.20 "Hg
* Reported Aug 16 2:00 AM — Aug 31 2:00 AM, Maseru, Weather by CustomWeather, © 2014

Note: Actual official high and low records may vary slightly from our data, if they occured in-between our weather recording intervals... More about our weather records

Advertising

Maseru weather history for previous 24 hours

 ConditionsComfort  
Time TempWeatherWind HumidityBarometerVisibility
2:00 AM
Aug 31
34 °FChilly.2 mph65%30.39 "HgN/A
1:00 AM36 °FChilly.5 mph56%30.39 "HgN/A
12:00 AM39 °FChilly.6 mph56%30.39 "HgN/A
11:00 PM
Aug 30
39 °FChilly.6 mph56%30.39 "HgN/A
10:00 PM41 °FQuite cool.8 mph45%30.39 "HgN/A
9:00 PM45 °FQuite cool.8 mph31%30.36 "HgN/A
8:00 PM46 °FClear.1 mph25%30.42 "Hg10 mi
7:00 PM52 °FClear.8 mph20%30.36 "Hg10 mi
6:00 PM57 °FClear.9 mph18%30.36 "Hg10 mi
5:00 PM61 °FClear.10 mph11%30.39 "Hg10 mi
4:00 PM61 °FPassing clouds.10 mph20%30.33 "HgN/A
3:00 PM59 °FPassing clouds.12 mph20%30.33 "HgN/A
2:00 PM59 °FSunny.12 mph17%30.39 "Hg10 mi
1:00 PM55 °FPassing clouds.10 mph23%30.39 "HgN/A
12:00 PM54 °FPassing clouds.13 mph28%30.42 "HgN/A
11:00 AM50 °FSunny.16 mph32%30.48 "Hg10 mi
10:00 AM46 °FSunny.20 mph43%30.45 "Hg10 mi
9:00 AM41 °FSunny.21 mph57%30.45 "Hg10 mi
8:00 AM37 °FSunny.12 mph70%30.42 "Hg10 mi
7:00 AM30 °FSunny.6 mph86%30.42 "Hg10 mi
6:00 AM34 °FSunny.10 mph81%30.39 "Hg10 mi
5:00 AM32 °FClear.9 mph87%30.39 "Hg10 mi
4:00 AM34 °FChilly.7 mph81%30.36 "HgN/A
3:00 AM32 °FChilly.7 mph80%30.36 "HgN/A
2:00 AM34 °FChilly.8 mph75%30.36 "HgN/A
Weather by CustomWeather, © 2014

See weather overviewHow to use our weather pages